Flag Weather past 2 weeks in Rastatt, Baden-Württemberg, Germany

Now
41 °F

Fog.


Feels Like: 41 °F
Forecast: 46 / 53 °F
Wind: 2 mph from Southeast

Location: Karlsruhe - Baden Wurttemberg

Current Time: Nov 23, 2014 at 11:44:58 PM

Latest Report: Nov 23, 2014 at 11:20 PM


Visibility: 0 mi

Pressure: 30.12 "Hg

Humidity: 100%

Dew point: 41 °F

Location of RastattLocation

Historic Weather in Rastatt — Graph

°F

Rastatt temperature yesterday

Maximum temperature yesterday: 43 °F (at 11:20 AM)
Minimum temperature yesterday: 37 °F (at 6:20 AM)
Average temperature yesterday: 42 °F

Past Weeks' High & Low Weather Summary

 TemperatureHumidityPressure
High55 °F (Nov 16, 1:20 PM)100% (Nov 8, 11:50 PM)30.30 "Hg (Nov 8, 11:50 PM)
Low34 °F (Nov 9, 5:50 AM)67% (Nov 16, 3:20 PM)29.56 "Hg (Nov 15, 10:50 PM)
Average46 °F91%29.89 "Hg
* Reported Nov 8 10:20 PM — Nov 23 10:20 PM, Rastatt, Weather by CustomWeather, © 2014

Note: Actual official high and low records may vary slightly from our data, if they occured in-between our weather recording intervals... More about our weather records

Advertising

Rastatt weather history for previous 24 hours

 ConditionsComfort  
Time TempWeatherWind HumidityBarometerVisibility
10:20 PM
Nov 23
41 °FFog.No wind100%30.12 "Hg1 mi
9:20 PM41 °FFog.1 mph100%30.12 "Hg0 mi
8:50 PM41 °FFog.No wind100%30.12 "Hg1 mi
8:20 PM41 °FFog.2 mph100%30.09 "Hg1 mi
7:50 PM41 °FFog.3 mph100%30.09 "Hg0 mi
7:20 PM41 °FFog.2 mph100%30.09 "Hg0 mi
6:50 PM41 °FFog.3 mph100%30.09 "Hg0 mi
6:20 PM41 °FFog.2 mph100%30.12 "Hg0 mi
5:50 PM41 °FFog.3 mph100%30.12 "Hg0 mi
5:20 PM41 °FFog.2 mph100%30.09 "Hg0 mi
4:50 PM41 °FFog.3 mph100%30.12 "Hg0 mi
4:20 PM43 °FFog.5 mph93%30.09 "Hg1 mi
3:50 PM43 °FFog.5 mph93%30.12 "Hg1 mi
3:20 PM43 °FFog.5 mph93%30.12 "Hg1 mi
2:50 PM43 °FFog.5 mph93%30.12 "Hg1 mi
2:20 PM43 °FFog.3 mph93%30.15 "Hg1 mi
1:50 PM43 °FFog.3 mph93%30.15 "Hg1 mi
1:20 PM43 °FFog.3 mph93%30.15 "Hg1 mi
12:50 PM43 °FFog.2 mph93%30.18 "Hg1 mi
12:20 PM41 °FFog.3 mph100%30.18 "Hg1 mi
11:50 AM41 °FFog.2 mph100%30.18 "Hg1 mi
11:20 AM41 °FFog.2 mph100%30.18 "Hg1 mi
10:50 AM41 °FFog.6 mph100%30.18 "Hg1 mi
10:20 AM41 °FFog.7 mph100%30.18 "Hg1 mi
9:50 AM41 °FFog.6 mph100%30.18 "Hg1 mi
9:20 AM41 °FFog.7 mph100%30.18 "Hg1 mi
8:50 AM41 °FFog.5 mph93%30.18 "Hg1 mi
8:20 AM41 °FFog.6 mph93%30.18 "Hg1 mi
7:50 AM41 °FFog.5 mph100%30.18 "Hg1 mi
7:20 AM41 °FFog.6 mph93%30.18 "Hg1 mi
6:50 AM41 °FFog.2 mph100%30.18 "Hg0 mi
6:20 AM41 °FFog.5 mph100%30.15 "Hg0 mi
5:50 AM41 °FFog.3 mph100%30.18 "Hg0 mi
5:20 AM41 °FFog.3 mph100%30.18 "Hg0 mi
4:50 AM41 °FFog.3 mph100%30.18 "Hg0 mi
12:20 AM43 °FFog.3 mph93%30.18 "Hg0 mi
11:20 PM
Nov 22
43 °FFog.2 mph93%30.18 "Hg1 mi
Weather by CustomWeather, © 2014

See weather overviewHow to use our weather pages